Location: Newark
(35.8967°N, 14.4625°E)
Time: 23:43:32
(UTC+00:00)

N. Korean satellite - Visible Passes

Search period start: 19 March 2019 00:00
Search period end: 29 March 2019 00:00
Orbit: 455 x 510 km, 97.2° (Epoch: 18 March)

Date Brightness Start Highest point End Pass type
(mag) Time Alt. Az. Time Alt. Az. Time Alt. Az.
19 Mar 9.7 04:24:29 10° NE 04:27:03 19° E 04:29:37 10° SE visible
23 Mar 9.9 04:18:53 10° NE 04:21:11 16° E 04:23:29 10° SE visible
27 Mar 10.0 04:13:19 10° ENE 04:15:15 14° E 04:17:12 10° SE visible
